Location: ?astrovice
(49.6513°N, 14.9287°E)
Time: 16:32:55
(UTC+00:00)

FO-99 - Pass Details

Date: 24 October 2021
Orbit: 469 x 501 km, 97.2° (Epoch: 30 November)

Event Time Altitude Azimuth Distance (km) Brightness Sun altitude
Exits shadow 18:26:25 16° 355° (N) 1,381 ? -25.5°
Drops below altitude 10° 18:27:11 10° 353° (N) 1,702 ? -25.7°
Sets 18:29:21 0° 350° (N) 2,615 ? -26.0°
